EN

Hourly Weather Bolshie Toronkovichi

Today, 30 October, Friday

Time Temperature Precipitation Wind Pressure Humidity
00:00 +8°C° 0 mm 3 mps 737 mmHg 93%
01:00 +7°C° 0 mm 3 mps 737 mmHg 94%
02:00 +7°C° 0 mm 3 mps 737 mmHg 95%
03:00 +7°C° 0.3 mm 2 mps 737 mmHg 95%
04:00 +8°C° 0.3 mm 2 mps 737 mmHg 95%
05:00 +8°C° 0.3 mm 2 mps 737 mmHg 96%
06:00 +8°C° 0.1 mm 2 mps 737 mmHg 96%
07:00 +8°C° 0.1 mm 2 mps 737 mmHg 96%
08:00 +8°C° 0.1 mm 2 mps 737 mmHg 96%
09:00 +8°C° 0 mm 2 mps 737 mmHg 93%
10:00 +9°C° 0 mm 2 mps 737 mmHg 89%
11:00 +10°C° 0 mm 2 mps 737 mmHg 86%
12:00 +10°C° 0 mm 2 mps 738 mmHg 84%
13:00 +10°C° 0 mm 2 mps 738 mmHg 83%
14:00 +10°C° 0 mm 2 mps 738 mmHg 82%
15:00 +10°C° 0.2 mm 2 mps 738 mmHg 84%
16:00 +9°C° 0.2 mm 2 mps 738 mmHg 87%
17:00 +8°C° 0.2 mm 3 mps 738 mmHg 90%
18:00 +8°C° 0.5 mm 3 mps 738 mmHg 90%
19:00 +8°C° 0.5 mm 3 mps 738 mmHg 89%
20:00 +7°C° 0.5 mm 3 mps 738 mmHg 89%
21:00 +7°C° 0.2 mm 2 mps 738 mmHg 90%
22:00 +7°C° 0.2 mm 2 mps 738 mmHg 91%
23:00 +6°C° 0.2 mm 2 mps 738 mmHg 92%

Tomorrow, 31 October, Saturday

Time Temperature Precipitation Wind Pressure Humidity
00:00 +7°C° 0 mm 1 mps 739 mmHg 93%
01:00 +7°C° 0 mm 1 mps 739 mmHg 93%
02:00 +6°C° 0 mm 1 mps 739 mmHg 94%
03:00 +6°C° 0 mm 1 mps 739 mmHg 94%
04:00 +6°C° 0 mm 1 mps 739 mmHg 94%
05:00 +6°C° 0 mm 1 mps 740 mmHg 94%
06:00 +6°C° 0 mm 1 mps 740 mmHg 95%
07:00 +6°C° 0 mm 1 mps 740 mmHg 95%
08:00 +6°C° 0 mm 1 mps 741 mmHg 96%
09:00 +7°C° 0 mm 1 mps 741 mmHg 92%
10:00 +7°C° 0 mm 2 mps 742 mmHg 89%
11:00 +8°C° 0 mm 2 mps 742 mmHg 85%
12:00 +9°C° 0 mm 2 mps 743 mmHg 85%
13:00 +9°C° 0 mm 2 mps 743 mmHg 84%
14:00 +9°C° 0 mm 2 mps 743 mmHg 83%
15:00 +9°C° 0 mm 2 mps 743 mmHg 86%
16:00 +8°C° 0 mm 2 mps 744 mmHg 88%
17:00 +8°C° 0 mm 2 mps 744 mmHg 91%
18:00 +8°C° 0 mm 2 mps 744 mmHg 91%
19:00 +7°C° 0 mm 2 mps 745 mmHg 92%
20:00 +7°C° 0 mm 2 mps 745 mmHg 93%
21:00 +7°C° 0 mm 2 mps 745 mmHg 93%
22:00 +7°C° 0 mm 2 mps 745 mmHg 94%
23:00 +7°C° 0 mm 2 mps 746 mmHg 94%

Day after tomorrow, 1 November, Sunday

Time Temperature Precipitation Wind Pressure Humidity
00:00 +7°C° 0 mm 2 mps 746 mmHg 95%
01:00 +7°C° 0 mm 2 mps 746 mmHg 95%
02:00 +7°C° 0 mm 2 mps 746 mmHg 95%
03:00 +6°C° 0 mm 2 mps 746 mmHg 95%
04:00 +6°C° 0 mm 2 mps 746 mmHg 96%
05:00 +6°C° 0 mm 2 mps 745 mmHg 96%
06:00 +5°C° 0 mm 2 mps 745 mmHg 96%
07:00 +5°C° 0 mm 2 mps 745 mmHg 97%
08:00 +5°C° 0 mm 2 mps 745 mmHg 97%
09:00 +6°C° 0 mm 2 mps 745 mmHg 93%
10:00 +5°C° 0 mm 3 mps 745 mmHg 89%
11:00 +7°C° 0 mm 3 mps 745 mmHg 85%
12:00 +7°C° 0 mm 3 mps 745 mmHg 83%
13:00 +8°C° 0 mm 2 mps 745 mmHg 80%
14:00 +8°C° 0 mm 2 mps 744 mmHg 78%
15:00 +7°C° 0 mm 2 mps 744 mmHg 79%
16:00 +7°C° 0 mm 2 mps 744 mmHg 80%
17:00 +8°C° 0 mm 1 mps 744 mmHg 80%
18:00 +7°C° 0 mm 2 mps 744 mmHg 81%
19:00 +7°C° 0 mm 2 mps 743 mmHg 82%
20:00 +7°C° 0 mm 2 mps 743 mmHg 82%
21:00 +6°C° 0 mm 2 mps 743 mmHg 84%
22:00 +5°C° 0 mm 2 mps 743 mmHg 85%
23:00 +5°C° 0 mm 2 mps 742 mmHg 87%

2 November, Monday

Time Temperature Precipitation Wind Pressure Humidity
00:00 +4°C° 0 mm 2 mps 742 mmHg 88%
01:00 +4°C° 0 mm 1 mps 742 mmHg 89%
02:00 +4°C° 0 mm 1 mps 742 mmHg 90%
03:00 +3°C° 0 mm 1 mps 741 mmHg 90%
04:00 +3°C° 0 mm 1 mps 741 mmHg 90%
05:00 +2°C° 0 mm 2 mps 741 mmHg 90%
06:00 +2°C° 0 mm 2 mps 740 mmHg 91%
07:00 +2°C° 0 mm 2 mps 740 mmHg 91%
08:00 +2°C° 0 mm 2 mps 740 mmHg 92%
09:00 +3°C° 0 mm 2 mps 740 mmHg 87%
10:00 +4°C° 0 mm 3 mps 740 mmHg 83%
11:00 +5°C° 0 mm 3 mps 740 mmHg 79%
12:00 +7°C° 0 mm 3 mps 740 mmHg 78%
13:00 +6°C° 0 mm 4 mps 739 mmHg 77%
14:00 +7°C° 0 mm 4 mps 739 mmHg 76%
15:00 +6°C° 0 mm 4 mps 739 mmHg 79%
16:00 +6°C° 0 mm 4 mps 739 mmHg 82%
17:00 +5°C° 0 mm 4 mps 739 mmHg 85%
18:00 +5°C° 0 mm 4 mps 739 mmHg 86%
19:00 +5°C° 0 mm 5 mps 739 mmHg 86%
20:00 +5°C° 0 mm 5 mps 739 mmHg 86%
21:00 +5°C° 0 mm 5 mps 739 mmHg 86%
22:00 +6°C° 0 mm 5 mps 738 mmHg 86%
23:00 +6°C° 0 mm 5 mps 738 mmHg 85%

3 November, Tuesday

Time Temperature Precipitation Wind Pressure Humidity
00:00 +6°C° 0 mm 5 mps 738 mmHg 86%
01:00 +6°C° 0 mm 5 mps 738 mmHg 87%
02:00 +7°C° 0 mm 5 mps 738 mmHg 88%
03:00 +7°C° 0 mm 5 mps 738 mmHg 89%
04:00 +7°C° 0 mm 5 mps 738 mmHg 90%
05:00 +7°C° 0 mm 5 mps 738 mmHg 91%
06:00 +7°C° 0 mm 5 mps 738 mmHg 92%
07:00 +7°C° 0 mm 5 mps 738 mmHg 93%
08:00 +8°C° 0 mm 5 mps 738 mmHg 94%
09:00 +8°C° 0 mm 5 mps 738 mmHg 95%
10:00 +8°C° 0 mm 5 mps 738 mmHg 95%
11:00 +9°C° 0 mm 5 mps 738 mmHg 96%
12:00 +10°C° 0 mm 4 mps 739 mmHg 95%
13:00 +11°C° 0 mm 4 mps 739 mmHg 94%
14:00 +12°C° 0 mm 3 mps 739 mmHg 93%
15:00 +12°C° 0 mm 3 mps 740 mmHg 94%
16:00 +12°C° 0 mm 3 mps 740 mmHg 94%
17:00 +12°C° 0 mm 3 mps 741 mmHg 94%
18:00 +11°C° 0 mm 3 mps 741 mmHg 92%
19:00 +10°C° 0 mm 3 mps 742 mmHg 89%
20:00 +9°C° 0 mm 3 mps 743 mmHg 86%
21:00 +8°C° 0 mm 2 mps 743 mmHg 87%
22:00 +7°C° 0 mm 2 mps 744 mmHg 87%
23:00 +6°C° 0 mm 2 mps 744 mmHg 88%

4 November, Wednesday

Time Temperature Precipitation Wind Pressure Humidity
00:00 +7°C° 0 mm 1 mps 744 mmHg 88%
01:00 +6°C° 0 mm 1 mps 745 mmHg 88%
02:00 +5°C° 0 mm 0 mps 745 mmHg 88%
03:00 +5°C° 0 mm 0 mps 745 mmHg 87%
04:00 +6°C° 0 mm 1 mps 745 mmHg 87%
05:00 +6°C° 0 mm 1 mps 745 mmHg 86%
06:00 +6°C° 0 mm 1 mps 745 mmHg 85%
07:00 +6°C° 0 mm 1 mps 745 mmHg 83%
08:00 +6°C° 0 mm 1 mps 745 mmHg 82%
09:00 +6°C° 0 mm 2 mps 745 mmHg 80%
10:00 +7°C° 0 mm 2 mps 745 mmHg 79%
11:00 +7°C° 0 mm 2 mps 745 mmHg 77%
12:00 +7°C° 0.6 mm 2 mps 744 mmHg 83%
13:00 +7°C° 0.6 mm 2 mps 744 mmHg 88%
14:00 +7°C° 0.6 mm 2 mps 744 mmHg 94%
15:00 +8°C° 2 mm 2 mps 743 mmHg 96%
16:00 +8°C° 2 mm 2 mps 743 mmHg 97%
17:00 +10°C° 2 mm 1 mps 743 mmHg 98%
18:00 +9°C° 1.3 mm 2 mps 743 mmHg 98%
19:00 +9°C° 1.3 mm 2 mps 743 mmHg 98%
20:00 +9°C° 1.3 mm 2 mps 743 mmHg 97%
21:00 +9°C° 0.4 mm 2 mps 743 mmHg 97%
22:00 +8°C° 0.4 mm 2 mps 743 mmHg 97%
23:00 +8°C° 0.4 mm 2 mps 743 mmHg 96%
Show more